Weather History for San Diego, CA

Change the Weather History Date:

Monday, November 19, 2012

  Actual Average Record
Temperature  
Mean Temperature 63 °F 60 °F  
Max Temperature 70 °F 68 °F 85 °F (1917)
Min Temperature 55 °F 53 °F 39 °F (1994)
Degree Days  
Heating Degree Days 2 5  
Month to date heating degree days 47 60  
Since 1 July heating degree days 51 81  
Cooling Degree Days 0 0  
Month to date cooling degree days 16 11  
Year to date cooling degree days 899 718  
Growing Degree Days 12 (Base 50)    
Moisture  
Dew Point 53 °F    
Average Humidity 70    
Maximum Humidity 86    
Minimum Humidity 53    
Precipitation  
Precipitation 0.00 in 0.03 in 1.05 in (1852)
Month to date precipitation 0.18 0.56  
Year to date precipitation 4.34 8.36  
Since 1 July precipitation 0.88 1.33  
Snow  
Snow 0.00 in - - ()
Month to date snowfall 0.0  
Year to date snowfall 0.0  
Since 1 July snowfall 0.0  
Snow Depth 0.00 in    
Sea Level Pressure  
Sea Level Pressure 30.20 in    
Wind  
Wind Speed 5 mph (NNW)    
Max Wind Speed 15 mph    
Max Gust Speed 20 mph    
Visibility 10 miles    
Events      
T = Trace of Precipitation, MM = Missing Value Source: NWS Daily Summary

Daily Weather History Graph

Daily Weather History Graph

Search for Another Location

Airport:

Trip Planner

Search our weather history database for the weather conditions in past years. The results will help you decide how hot, cold, wet, or windy it might be!

Date:

Astronomy

Nov. 19, 2012 Rise Set
Actual Time 6:22 AM PST 4:45 PM PST
Civil Twilight 5:56 AM PST 5:11 PM PST
Nautical Twilight 5:26 AM PST 5:41 PM PST
Astronomical Twilight 4:57 AM PST 6:11 PM PST
Moon 11:35 AM PST (11/19) 11:08 PM PST (11/19)
Length of Visible Light 11h 15m
Length of Day
10h 22m
Waxing Crescent, 42% of the Moon is Illuminated
Nov 19
Waxing Crescent
Nov 20
First Quarter
Nov 28
Full
Dec 6
Last Quarter
Dec 13
New

Hourly Weather History & Observations

Time (PST) Temp. Dew Point Humidity Pressure Visibility Wind Dir Wind Speed Gust Speed Precip Events Conditions
12:51 AM 59.0 °F 53.1 °F 81% 30.19 in 10.0 mi Calm Calm - N/A   Clear
1:51 AM 57.0 °F 52.0 °F 83% 30.19 in 10.0 mi Calm Calm - N/A   Partly Cloudy
2:00 AM 57.2 °F 51.8 °F 82% 30.19 in 10.0 mi Calm Calm - N/A   Mostly Cloudy
2:29 AM 57.2 °F 51.8 °F 82% 30.19 in 10.0 mi North 3.5 mph - N/A   Partly Cloudy
2:51 AM 57.0 °F 52.0 °F 83% 30.19 in 10.0 mi North 3.5 mph - N/A   Partly Cloudy
3:51 AM 55.9 °F 51.1 °F 84% 30.19 in 10.0 mi Calm Calm - N/A   Clear
4:51 AM 55.0 °F 51.1 °F 86% 30.19 in 10.0 mi Calm Calm - N/A   Clear
5:51 AM 55.0 °F 50.0 °F 83% 30.21 in 10.0 mi Calm Calm - N/A   Partly Cloudy
6:51 AM 55.0 °F 51.1 °F 86% 30.24 in 10.0 mi Calm Calm - N/A   Partly Cloudy
7:51 AM 57.9 °F 50.0 °F 75% 30.25 in 10.0 mi Calm Calm - N/A   Partly Cloudy
8:51 AM 62.1 °F 52.0 °F 70% 30.25 in 10.0 mi NNW 6.9 mph - N/A   Partly Cloudy
9:51 AM 64.9 °F 52.0 °F 63% 30.25 in 10.0 mi North 10.4 mph - N/A   Partly Cloudy
10:51 AM 66.9 °F 52.0 °F 59% 30.23 in 10.0 mi NNW 10.4 mph - N/A   Partly Cloudy
11:51 AM 68.0 °F 50.0 °F 52% 30.20 in 10.0 mi NNW 9.2 mph - N/A   Partly Cloudy
12:51 PM 66.9 °F 52.0 °F 59% 30.19 in 10.0 mi WNW 13.8 mph - N/A   Partly Cloudy
1:51 PM 66.0 °F 53.1 °F 63% 30.17 in 10.0 mi NW 13.8 mph - N/A   Clear
2:51 PM 64.9 °F 55.0 °F 70% 30.17 in 10.0 mi NW 11.5 mph - N/A   Partly Cloudy
3:51 PM 64.0 °F 55.9 °F 75% 30.17 in 10.0 mi NW 8.1 mph - N/A   Partly Cloudy
4:51 PM 63.0 °F 57.0 °F 81% 30.18 in 10.0 mi NW 8.1 mph - N/A   Partly Cloudy
5:51 PM 63.0 °F 55.9 °F 78% 30.20 in 10.0 mi NNW 4.6 mph - N/A   Scattered Clouds
6:51 PM 62.1 °F 55.9 °F 80% 30.20 in 10.0 mi NNW 4.6 mph - N/A   Scattered Clouds
7:51 PM 62.1 °F 55.9 °F 80% 30.20 in 10.0 mi NNE 3.5 mph - N/A   Scattered Clouds
7:58 PM 62.6 °F 55.4 °F 77% 30.21 in 10.0 mi NNE 3.5 mph - N/A   Mostly Cloudy
8:51 PM 62.1 °F 55.0 °F 78% 30.20 in 10.0 mi North 4.6 mph - N/A   Mostly Cloudy
9:02 PM 62.6 °F 55.4 °F 77% 30.20 in 10.0 mi North 3.5 mph - N/A   Scattered Clouds
9:51 PM 60.1 °F 55.0 °F 83% 30.20 in 10.0 mi North 3.5 mph - N/A   Partly Cloudy
10:51 PM 59.0 °F 55.0 °F 87% 30.19 in 10.0 mi NNE 4.6 mph - N/A   Scattered Clouds
11:08 PM 60.8 °F 55.4 °F 82% 30.19 in 10.0 mi Calm Calm - N/A   Mostly Cloudy
11:51 PM 60.1 °F 55.0 °F 83% 30.18 in 10.0 mi NE 4.6 mph - N/A   Mostly Cloudy
11:59 PM 60.8 °F 55.4 °F 82% 30.18 in 9.0 mi NNE 3.5 mph - N/A   Scattered Clouds